STARLINK-11748, 64373

Orbit data source: Space-Track

STARLINK-11748, 64373 is a payload satellite owned by SpaceX/Seattle (US) in LEO that was launched on Fri, 13 Jun 2025 UTC via an FALCON 9 launch vehicle from the Air Force Eastern Test Range (AFETR). Payload-class satellites include a variety of spacecraft equipped with specific instruments for various scientific and technological missions. These include communications satellites like Starlink; space stations such as the ISS; scientific satellites like the Hubble; Earth observation satellites from companies like Planet Labs, Umbra, and HawkEye 360; GPS; miniature CubeSats for education and research; and military/defense satellites.

Loading next visibility...
Identifier
64373, 2025-127D
Orbit
LEO
Country
Flag of USUS
Related business
Manufacturer
SpaceX/Seattle
Mission
Operational Commercial Communications
Bus & Motor
STARLINK V2MD, Unknown motor
Mass
960 kg wet, ~910 kg dry
Launch date (UTC)
2025-06-13 (1 year ago)
Launch vehicle
FALCON 9
Launch site
Air Force Eastern Test Range (AFETR)
Object type
Payload
Rocket body
Debris
Shape & HBR
Box + 2 Pan, 18.1 m
Radar Cross Section
36.964 m², Large (>1 m²)

Expand to show TLE details & history
Last TLE update: 18 hours ago

TLE from 18 hours ago
0 STARLINK-11748
1 64373U 25127D   26171.09851699  .00125468  00000-0  96566-3 0  9995
2 64373  42.9977 187.6917 0003856 289.0460  70.9990 15.70857045 59609
Epoch: 2026-06-20T02:21Z
TLE epoch observation values (Epoch: 2026-06-20T02:21:51.867Z)
Latitude
-0.00002°
Longitude
-116.09245°
Altitude
355.373 km
Speed
7.698 km/s
True Right ascension
12h 30m 46s
True Declination
0° 00' 00"
Sunlit
Object was in daylight at epoch
Visualization orbit readout
Latitude
Unknown
Longitude
Unknown
Altitude
Unknown
Speed
Unknown
Apparent Right ascension
Unknown
Apparent Declination
Unknown
Sunlit
N/A
Visualization observer readout
Local Sidereal Time
07:23:39
Azimuth
Unknown
Elevation
Unknown
Doppler factor
Unknown
Orbital elements
Apogee altitude
361.026 km
Perigee altitude
355.831 km
Semi-major axis
6,736.565 km
Eccentricity
0.00039
Inclination
42.9977°
RAAN
187.6917°
Arg. of periapsis
289.046°
True anomaly
71.04079°
Mean anomaly
70.999°
Eccentric anomaly
71.01989°
Mean motion
3.92541 °/min
Orbital period
91.71 mins
BSTAR
0.00096566
Loading maneuver chart data...
Computing Atmospheric mass density...
Loading historical data...
Loading historical data...
Loading historical data...
Loading historical data...
Loading historical data...
Loading historical data...
Loading historical data...

Documentation

Showing up to 5 results
|